Location: *
(51.1248°S, 108.4023°W)
Time: 11:56:52
(UTC+00:00)

Cosmos 2278 Rocket - Visible Passes

Search period start: 23 October 2021 00:00
Search period end: 02 November 2021 00:00
Orbit: 840 x 847 km, 71.0° (Epoch: 22 October)

Date Brightness Start Highest point End Pass type
(mag) Time Alt. Az. Time Alt. Az. Time Alt. Az.
23 Oct 2.3 06:47:25 60° E 06:47:25 60° E 06:52:44 10° SE visible
23 Oct 3.5 08:29:14 24° W 08:31:33 32° SW 08:36:41 10° SSE visible
23 Oct 4.6 10:15:10 10° SW 10:17:35 13° SSW 10:20:03 10° S visible
24 Oct 2.3 06:32:47 59° E 06:32:47 59° E 06:38:08 10° SE visible
24 Oct 3.5 08:14:36 24° W 08:16:57 33° SW 08:22:07 10° SSE visible
24 Oct 4.6 10:00:26 10° SW 10:02:57 13° SSW 10:05:29 10° S visible
25 Oct 2.3 06:18:07 57° ENE 06:18:07 57° ENE 06:23:31 10° SE visible
25 Oct 3.5 07:59:55 24° W 08:02:20 34° SW 08:07:32 10° SSE visible
25 Oct 4.6 09:45:43 10° SW 09:48:18 13° SSW 09:50:55 10° S visible
26 Oct 2.3 06:03:23 55° ENE 06:03:23 55° ENE 06:08:56 10° SE visible
26 Oct 3.5 07:45:11 24° W 07:47:43 35° SW 07:52:57 10° SSE visible
26 Oct 4.7 09:30:59 10° SW 09:33:39 13° SSW 09:36:20 10° S visible
27 Oct 2.3 05:48:36 53° ENE 05:48:46 53° ENE 05:54:19 10° SE visible
27 Oct 3.4 07:30:24 24° W 07:33:06 36° SW 07:38:22 10° SSE visible
27 Oct 4.7 09:16:16 10° SW 09:19:01 13° SSW 09:21:46 10° S visible
27 Oct 5.1 11:05:17 10° S 11:05:57 10° S 11:06:36 10° SSE visible
28 Oct 2.4 05:33:45 50° NE 05:34:12 51° ENE 05:39:43 10° SE visible
28 Oct 3.4 07:15:33 22° W 07:18:29 37° SW 07:23:48 10° SSE visible
28 Oct 4.7 09:01:32 10° SW 09:04:22 14° SSW 09:07:12 10° S visible
28 Oct 5.2 10:50:45 10° S 10:51:17 10° S 10:51:50 10° SSE visible
29 Oct 2.4 05:18:49 46° NE 05:19:37 49° ENE 05:25:07 10° SE visible
29 Oct 3.4 07:00:36 21° WNW 07:03:52 38° SW 07:09:13 10° SSE visible
29 Oct 4.7 08:46:49 10° SW 08:49:43 14° SSW 08:52:37 10° S visible
29 Oct 5.2 10:36:12 10° S 10:36:38 10° S 10:37:03 10° S visible
30 Oct 2.5 05:03:46 41° NNE 05:05:02 47° ENE 05:10:30 10° SE visible
30 Oct 3.4 06:45:33 18° WNW 06:49:16 39° SW 06:54:38 10° SSE visible
30 Oct 4.8 08:32:06 10° SW 08:35:05 14° SSW 08:38:04 10° S visible
30 Oct 5.3 10:21:44 10° S 10:21:58 10° S 10:22:13 10° S visible
31 Oct 2.5 04:48:36 34° NNE 04:50:27 46° ENE 04:55:53 10° SE visible
31 Oct 3.3 06:30:22 15° WNW 06:34:39 40° SW 06:40:03 10° SSE visible
31 Oct 4.8 08:17:22 10° WSW 08:20:25 14° SSW 08:23:29 10° S visible
01 Nov 2.6 04:33:14 27° NNE 04:35:52 44° ENE 04:41:17 10° SE visible
01 Nov 3.3 06:14:58 12° WNW 06:20:02 41° SW 06:25:28 10° SSE visible
01 Nov 4.8 08:02:39 10° WSW 08:05:47 15° SSW 08:08:54 10° S visible
